Time,TemperatureF,DewpointF,PressureIn,WindDirection,WindDirectionDegrees,WindSpeedMPH,WindSpeedGustMPH,Humidity,HourlyPrecipIn,Conditions,Clouds,dailyrainin,SoftwareType,DateUTC
2013-05-22 00:01:00,69.9,68.1,30.03,SSE,162,11.0,11.0,94,0.00,,---,0.00,VWS V14.00,2013-05-22 04:01:00,
2013-05-22 00:06:00,70.1,68.3,30.03,SSE,166,8.0,11.0,94,0.00,,---,0.00,VWS V14.00,2013-05-22 04:06:00,
2013-05-22 00:11:00,70.1,68.6,30.03,South,170,8.0,11.0,95,0.00,,---,0.00,VWS V14.00,2013-05-22 04:11:00,
2013-05-22 00:16:00,70.3,68.8,30.03,South,189,7.0,12.0,95,0.00,,---,0.00,VWS V14.00,2013-05-22 04:16:00,
2013-05-22 00:21:00,70.3,68.8,30.03,SSE,154,7.0,12.0,95,0.00,,---,0.00,VWS V14.00,2013-05-22 04:21:00,
2013-05-22 00:26:00,70.3,68.8,30.03,South,180,6.0,12.0,95,0.00,,---,0.00,VWS V14.00,2013-05-22 04:26:00,
2013-05-22 00:31:00,70.4,68.9,30.03,South,182,7.0,12.0,95,0.00,,---,0.00,VWS V14.00,2013-05-22 04:31:00,
2013-05-22 00:36:00,70.4,68.9,30.03,SSE,164,6.0,12.0,95,0.00,,---,0.00,VWS V14.00,2013-05-22 04:36:00,
2013-05-22 00:41:00,70.4,68.6,30.03,SSE,164,5.0,12.0,94,0.00,,---,0.00,VWS V14.00,2013-05-22 04:41:00,
2013-05-22 00:46:00,70.4,68.6,30.04,South,176,5.0,12.0,94,0.00,,---,0.00,VWS V14.00,2013-05-22 04:46:00,
2013-05-22 00:51:00,70.4,68.6,30.04,South,188,5.0,12.0,94,0.00,,---,0.00,VWS V14.00,2013-05-22 04:51:00,
2013-05-22 00:56:00,70.5,68.7,30.04,South,180,4.0,12.0,94,0.00,,---,0.00,VWS V14.00,2013-05-22 04:56:00,
2013-05-22 01:01:00,70.5,68.7,30.04,South,177,5.0,8.0,94,0.00,,---,0.00,VWS V14.00,2013-05-22 05:01:00,
2013-05-22 01:06:00,70.6,68.8,30.04,South,184,5.0,9.0,94,0.00,,---,0.00,VWS V14.00,2013-05-22 05:06:00,
2013-05-22 01:11:00,70.5,68.7,30.04,SSW,197,7.0,11.0,94,0.00,,---,0.00,VWS V14.00,2013-05-22 05:11:00,
2013-05-22 01:16:00,70.6,68.8,30.04,SSW,195,5.0,11.0,94,0.00,,---,0.00,VWS V14.00,2013-05-22 05:16:00,
2013-05-22 01:21:00,70.5,68.7,30.04,South,182,4.0,11.0,94,0.00,,---,0.00,VWS V14.00,2013-05-22 05:21:00,
2013-05-22 01:27:00,70.5,68.7,30.04,South,186,2.0,11.0,94,0.00,,---,0.00,VWS V14.00,2013-05-22 05:27:00,
2013-05-22 01:32:00,70.4,68.6,30.04,SSW,197,3.0,8.0,94,0.00,,---,0.00,VWS V14.00,2013-05-22 05:32:00,
2013-05-22 01:37:00,70.3,68.5,30.03,SSW,195,3.0,8.0,94,0.00,,---,0.00,VWS V14.00,2013-05-22 05:37:00,
2013-05-22 01:42:00,70.2,68.4,30.03,SSW,199,3.0,8.0,94,0.00,,---,0.00,VWS V14.00,2013-05-22 05:42:00,
2013-05-22 01:47:00,70.2,68.4,30.03,SSW,201,0.0,8.0,94,0.00,,---,0.00,VWS V14.00,2013-05-22 05:47:00,
2013-05-22 01:52:00,70.1,68.3,30.03,SSW,201,0.0,8.0,94,0.00,,---,0.00,VWS V14.00,2013-05-22 05:52:00,
2013-05-22 01:57:00,70.0,68.2,30.03,SSW,202,0.0,8.0,94,0.00,,---,0.00,VWS V14.00,2013-05-22 05:57:00,
2013-05-22 02:02:00,69.8,68.0,30.03,SSW,202,0.0,0.0,94,0.00,,---,0.00,VWS V14.00,2013-05-22 06:02:00,
2013-05-22 02:07:00,69.7,67.9,30.03,SSW,196,0.0,4.0,94,0.00,,---,0.00,VWS V14.00,2013-05-22 06:07:00,
2013-05-22 02:12:00,69.6,67.8,30.03,SW,231,2.0,4.0,94,0.00,,---,0.00,VWS V14.00,2013-05-22 06:12:00,
2013-05-22 02:17:00,69.6,67.8,30.03,SW,214,0.0,4.0,94,0.00,,---,0.00,VWS V14.00,2013-05-22 06:17:00,
2013-05-22 02:22:00,69.5,67.7,30.03,South,190,0.0,4.0,94,0.00,,---,0.00,VWS V14.00,2013-05-22 06:22:00,
2013-05-22 02:27:00,69.5,68.0,30.03,South,189,0.0,4.0,95,0.00,,---,0.00,VWS V14.00,2013-05-22 06:27:00,
2013-05-22 02:32:00,69.5,68.0,30.03,South,189,0.0,0.0,95,0.00,,---,0.00,VWS V14.00,2013-05-22 06:32:00,
2013-05-22 02:37:00,69.5,68.0,30.03,South,189,0.0,0.0,95,0.00,,---,0.00,VWS V14.00,2013-05-22 06:37:00,
2013-05-22 02:42:00,69.5,68.0,30.03,South,189,0.0,0.0,95,0.00,,---,0.00,VWS V14.00,2013-05-22 06:42:00,
2013-05-22 02:47:00,69.5,68.0,30.03,South,189,0.0,0.0,95,0.00,,---,0.00,VWS V14.00,2013-05-22 06:47:00,
2013-05-22 02:52:00,69.5,68.0,30.03,South,189,0.0,0.0,95,0.00,,---,0.00,VWS V14.00,2013-05-22 06:52:00,
2013-05-22 02:57:00,69.4,67.6,30.04,South,189,0.0,0.0,94,0.00,,---,0.00,VWS V14.00,2013-05-22 06:57:00,
2013-05-22 03:02:00,69.1,67.6,30.04,South,189,0.0,0.0,95,0.00,,---,0.00,VWS V14.00,2013-05-22 07:02:00,
2013-05-22 03:07:00,68.6,66.8,30.04,South,189,0.0,0.0,94,0.00,,---,0.00,VWS V14.00,2013-05-22 07:07:00,
2013-05-22 03:12:00,68.2,66.7,30.04,SW,231,0.0,0.0,95,0.00,,---,0.00,VWS V14.00,2013-05-22 07:12:00,
2013-05-22 03:17:00,68.6,67.4,30.04,WSW,244,4.0,4.0,96,0.00,,---,0.00,VWS V14.00,2013-05-22 07:17:00,
2013-05-22 03:22:00,69.0,67.8,30.04,WSW,241,1.0,7.0,96,0.00,,---,0.00,VWS V14.00,2013-05-22 07:22:00,
2013-05-22 03:27:00,68.9,67.4,30.04,WSW,241,0.0,7.0,95,0.00,,---,0.00,VWS V14.00,2013-05-22 07:27:00,
2013-05-22 03:32:00,68.8,67.3,30.04,WSW,241,0.0,0.0,95,0.00,,---,0.00,VWS V14.00,2013-05-22 07:32:00,
2013-05-22 03:37:00,68.7,67.2,30.04,WSW,241,0.0,0.0,95,0.00,,---,0.00,VWS V14.00,2013-05-22 07:37:00,
2013-05-22 03:42:00,68.8,67.3,30.04,WSW,241,0.0,0.0,95,0.00,,---,0.00,VWS V14.00,2013-05-22 07:42:00,
2013-05-22 03:47:00,68.8,67.3,30.04,WSW,241,0.0,0.0,95,0.00,,---,0.00,VWS V14.00,2013-05-22 07:47:00,
2013-05-22 03:52:00,68.8,67.3,30.04,WSW,241,0.0,0.0,95,0.00,,---,0.00,VWS V14.00,2013-05-22 07:52:00,
2013-05-22 03:57:00,68.8,67.3,30.04,WSW,241,0.0,0.0,95,0.00,,---,0.00,VWS V14.00,2013-05-22 07:57:00,
2013-05-22 04:02:00,68.9,67.4,30.05,WSW,241,0.0,0.0,95,0.00,,---,0.00,VWS V14.00,2013-05-22 08:02:00,
2013-05-22 04:07:00,68.9,67.7,30.05,SW,236,5.0,9.0,96,0.00,,---,0.00,VWS V14.00,2013-05-22 08:07:00,
2013-05-22 04:12:00,68.8,67.3,30.05,SW,220,6.0,9.0,95,0.00,,---,0.00,VWS V14.00,2013-05-22 08:12:00,
2013-05-22 04:17:00,68.6,67.1,30.05,SSW,193,10.0,17.0,95,1.87,,---,0.08,VWS V14.00,2013-05-22 08:17:00,
2013-05-22 04:22:00,68.5,66.7,30.05,SSW,199,5.0,17.0,94,0.14,,---,0.08,VWS V14.00,2013-05-22 08:22:00,
2013-05-22 04:27:00,68.3,66.5,30.05,SW,216,11.0,17.0,94,0.06,,---,0.08,VWS V14.00,2013-05-22 08:27:00,
2013-05-22 04:32:00,68.2,66.4,30.04,SSW,201,5.0,11.0,94,0.04,,---,0.08,VWS V14.00,2013-05-22 08:32:00,
2013-05-22 04:37:00,68.2,66.4,30.04,SSW,209,6.0,11.0,94,0.00,,---,0.08,VWS V14.00,2013-05-22 08:37:00,
2013-05-22 04:42:00,68.0,65.9,30.05,SSW,203,5.0,11.0,93,0.00,,---,0.09,VWS V14.00,2013-05-22 08:42:00,
2013-05-22 04:47:00,67.9,65.8,30.05,South,186,4.0,11.0,93,0.00,,---,0.09,VWS V14.00,2013-05-22 08:47:00,
2013-05-22 04:52:00,67.9,65.8,30.04,SSW,194,3.0,11.0,93,0.00,,---,0.09,VWS V14.00,2013-05-22 08:52:00,
2013-05-22 04:57:00,68.1,66.0,30.04,SSW,197,6.0,11.0,93,0.00,,---,0.09,VWS V14.00,2013-05-22 08:57:00,
2013-05-22 05:02:00,68.3,66.2,30.04,SSW,195,7.0,10.0,93,0.00,,---,0.09,VWS V14.00,2013-05-22 09:02:00,
2013-05-22 05:07:00,68.5,66.1,30.04,SSW,198,10.0,16.0,92,0.00,,---,0.09,VWS V14.00,2013-05-22 09:07:00,
2013-05-22 05:12:00,68.4,66.3,30.04,South,191,8.0,16.0,93,0.00,,---,0.09,VWS V14.00,2013-05-22 09:12:00,
2013-05-22 05:17:00,68.2,66.1,30.04,SSW,196,6.0,16.0,93,0.00,,---,0.09,VWS V14.00,2013-05-22 09:17:00,
2013-05-22 05:22:00,67.9,65.8,30.04,SSW,208,5.0,16.0,93,0.00,,---,0.10,VWS V14.00,2013-05-22 09:22:00,
2013-05-22 05:27:00,67.6,65.5,30.03,SSW,195,6.0,16.0,93,0.12,,---,0.11,VWS V14.00,2013-05-22 09:27:00,
2013-05-22 05:32:00,67.4,65.3,30.02,SSW,203,4.0,6.0,93,0.07,,---,0.11,VWS V14.00,2013-05-22 09:32:00,
2013-05-22 05:37:00,67.4,65.3,30.02,SSW,209,1.0,6.0,93,0.05,,---,0.11,VWS V14.00,2013-05-22 09:37:00,
2013-05-22 05:42:00,67.3,65.2,30.02,SSW,195,0.0,6.0,93,0.00,,---,0.11,VWS V14.00,2013-05-22 09:42:00,
2013-05-22 05:47:00,67.3,65.2,30.02,South,184,0.0,6.0,93,0.00,,---,0.11,VWS V14.00,2013-05-22 09:47:00,
2013-05-22 05:52:00,67.2,65.1,30.02,South,183,0.0,6.0,93,0.00,,---,0.11,VWS V14.00,2013-05-22 09:52:00,
2013-05-22 05:57:00,67.0,64.9,30.02,South,183,0.0,6.0,93,0.00,,---,0.11,VWS V14.00,2013-05-22 09:57:00,
2013-05-22 06:02:00,66.9,64.8,30.02,South,183,0.0,0.0,93,0.00,,---,0.11,VWS V14.00,2013-05-22 10:02:00,
2013-05-22 06:07:00,66.8,64.7,30.03,South,190,0.0,1.0,93,0.00,,---,0.11,VWS V14.00,2013-05-22 10:07:00,
2013-05-22 06:12:00,66.8,64.7,30.03,South,189,0.0,1.0,93,0.00,,---,0.11,VWS V14.00,2013-05-22 10:12:00,
2013-05-22 06:17:00,66.8,65.0,30.03,South,189,0.0,1.0,94,0.00,,---,0.11,VWS V14.00,2013-05-22 10:17:00,
2013-05-22 06:23:00,66.9,65.1,30.03,South,186,0.0,1.0,94,0.00,,---,0.11,VWS V14.00,2013-05-22 10:23:00,
2013-05-22 06:28:00,67.1,65.3,30.03,South,176,0.0,1.0,94,0.00,,---,0.11,VWS V14.00,2013-05-22 10:28:00,
2013-05-22 06:33:00,67.5,66.0,30.03,South,176,0.0,0.0,95,0.00,,---,0.11,VWS V14.00,2013-05-22 10:33:00,
2013-05-22 06:38:00,67.8,66.3,30.03,South,176,0.0,0.0,95,0.00,,---,0.11,VWS V14.00,2013-05-22 10:38:00,
2013-05-22 06:43:00,68.1,66.6,30.03,South,188,2.0,4.0,95,0.00,,---,0.11,VWS V14.00,2013-05-22 10:43:00,
2013-05-22 06:48:00,68.2,66.7,30.03,SSW,193,3.0,5.0,95,0.00,,---,0.11,VWS V14.00,2013-05-22 10:48:00,
2013-05-22 06:53:00,68.4,66.9,30.03,SSW,193,1.0,5.0,95,0.00,,---,0.11,VWS V14.00,2013-05-22 10:53:00,
2013-05-22 06:58:00,68.6,67.1,30.03,SSW,193,0.0,5.0,95,0.00,,---,0.11,VWS V14.00,2013-05-22 10:58:00,
2013-05-22 07:03:00,68.8,67.3,30.03,SSW,193,0.0,0.0,95,0.00,,---,0.11,VWS V14.00,2013-05-22 11:03:00,
2013-05-22 07:08:00,69.1,67.6,30.03,SSW,193,0.0,0.0,95,0.00,,---,0.11,VWS V14.00,2013-05-22 11:08:00,
2013-05-22 07:13:00,69.2,67.7,30.04,SSW,193,0.0,0.0,95,0.00,,---,0.11,VWS V14.00,2013-05-22 11:13:00,
2013-05-22 07:18:00,69.3,67.8,30.03,SSW,193,0.0,0.0,95,0.00,,---,0.11,VWS V14.00,2013-05-22 11:18:00,
2013-05-22 07:23:00,69.5,68.0,30.04,SSW,193,0.0,0.0,95,0.00,,---,0.11,VWS V14.00,2013-05-22 11:23:00,
2013-05-22 07:28:00,69.8,68.3,30.04,South,185,0.0,0.0,95,0.00,,---,0.11,VWS V14.00,2013-05-22 11:28:00,
2013-05-22 07:33:00,70.0,68.2,30.04,South,174,2.0,4.0,94,0.00,,---,0.11,VWS V14.00,2013-05-22 11:33:00,
2013-05-22 07:38:00,70.3,68.5,30.04,SSE,159,3.0,4.0,94,0.00,,---,0.11,VWS V14.00,2013-05-22 11:38:00,
2013-05-22 07:43:00,70.5,68.7,30.04,SSE,164,2.0,6.0,94,0.00,,---,0.11,VWS V14.00,2013-05-22 11:43:00,
2013-05-22 07:48:00,70.8,69.0,30.04,South,170,4.0,6.0,94,0.00,,---,0.11,VWS V14.00,2013-05-22 11:48:00,
2013-05-22 07:53:00,71.1,69.0,30.04,SSE,156,5.0,6.0,93,0.00,,---,0.11,VWS V14.00,2013-05-22 11:53:00,
2013-05-22 07:58:00,71.3,68.9,30.04,SSE,150,6.0,6.0,92,0.00,,---,0.11,VWS V14.00,2013-05-22 11:58:00,
2013-05-22 08:03:00,71.5,69.1,30.04,SSE,163,6.0,8.0,92,0.00,,---,0.11,VWS V14.00,2013-05-22 12:03:00,
2013-05-22 08:08:00,71.9,69.4,30.04,South,187,3.0,8.0,92,0.00,,---,0.11,VWS V14.00,2013-05-22 12:08:00,
2013-05-22 08:13:00,72.2,69.8,30.04,SSE,166,3.0,8.0,92,0.00,,---,0.11,VWS V14.00,2013-05-22 12:13:00,
2013-05-22 08:18:00,72.6,70.2,30.04,SSE,162,4.0,8.0,92,0.00,,---,0.11,VWS V14.00,2013-05-22 12:18:00,
2013-05-22 08:23:00,73.0,70.2,30.04,South,177,4.0,8.0,91,0.00,,---,0.11,VWS V14.00,2013-05-22 12:23:00,
2013-05-22 08:28:00,73.5,70.7,30.05,SSE,151,7.0,7.0,91,0.00,,---,0.11,VWS V14.00,2013-05-22 12:28:00,
2013-05-22 08:33:00,73.8,71.0,30.05,SSE,150,6.0,8.0,91,0.00,,---,0.11,VWS V14.00,2013-05-22 12:33:00,
2013-05-22 08:38:00,74.0,71.2,30.05,South,170,5.0,10.0,91,0.00,,---,0.11,VWS V14.00,2013-05-22 12:38:00,
2013-05-22 08:43:00,74.4,71.6,30.05,South,172,7.0,10.0,91,0.00,,---,0.11,VWS V14.00,2013-05-22 12:43:00,
2013-05-22 08:48:00,74.6,71.2,30.05,South,178,6.0,11.0,89,0.00,,---,0.11,VWS V14.00,2013-05-22 12:48:00,
2013-05-22 08:53:00,74.5,70.7,30.06,South,179,8.0,12.0,88,0.00,,---,0.11,VWS V14.00,2013-05-22 12:53:00,
2013-05-22 08:58:00,74.6,70.8,30.06,SSW,203,9.0,9.0,88,0.00,,---,0.11,VWS V14.00,2013-05-22 12:58:00,
2013-05-22 09:03:00,74.9,71.1,30.06,SSW,192,7.0,13.0,88,0.00,,---,0.11,VWS V14.00,2013-05-22 13:03:00,
2013-05-22 09:08:00,74.8,71.0,30.06,South,183,8.0,13.0,88,0.00,,---,0.11,VWS V14.00,2013-05-22 13:08:00,
2013-05-22 09:13:00,74.9,70.8,30.06,South,175,8.0,13.0,87,0.00,,---,0.11,VWS V14.00,2013-05-22 13:13:00,
2013-05-22 09:18:00,75.1,71.0,30.06,South,190,8.0,13.0,87,0.00,,---,0.11,VWS V14.00,2013-05-22 13:18:00,
2013-05-22 09:23:00,75.3,70.8,30.06,SSE,156,8.0,13.0,86,0.00,,---,0.11,VWS V14.00,2013-05-22 13:23:00,
2013-05-22 09:28:00,75.5,71.0,30.06,SSE,158,6.0,7.0,86,0.00,,---,0.11,VWS V14.00,2013-05-22 13:28:00,
2013-05-22 09:33:00,76.0,71.9,30.06,SSE,165,10.0,12.0,87,0.00,,---,0.11,VWS V14.00,2013-05-22 13:33:00,
2013-05-22 09:38:00,76.2,71.4,30.06,SSE,164,7.0,12.0,85,0.00,,---,0.11,VWS V14.00,2013-05-22 13:38:00,
2013-05-22 09:43:00,76.5,72.0,30.06,South,172,7.0,12.0,86,0.00,,---,0.11,VWS V14.00,2013-05-22 13:43:00,
2013-05-22 09:48:00,76.2,71.4,30.06,SSE,152,5.0,13.0,85,0.00,,---,0.11,VWS V14.00,2013-05-22 13:48:00,
2013-05-22 09:53:00,76.1,70.9,30.06,SSW,200,10.0,13.0,84,0.00,,---,0.11,VWS V14.00,2013-05-22 13:53:00,
2013-05-22 09:58:00,75.8,71.0,30.06,SSW,200,12.0,14.0,85,0.00,,---,0.11,VWS V14.00,2013-05-22 13:58:00,
2013-05-22 10:03:00,76.1,70.9,30.06,SSE,151,7.0,14.0,84,0.00,,---,0.11,VWS V14.00,2013-05-22 14:03:00,
2013-05-22 10:08:00,76.6,71.4,30.06,SSE,157,7.0,14.0,84,0.00,,---,0.11,VWS V14.00,2013-05-22 14:08:00,
2013-05-22 10:13:00,77.0,71.1,30.06,SSE,163,8.0,14.0,82,0.00,,---,0.11,VWS V14.00,2013-05-22 14:13:00,
2013-05-22 10:18:00,77.0,71.1,30.06,SSE,154,11.0,14.0,82,0.00,,---,0.11,VWS V14.00,2013-05-22 14:18:00,
2013-05-22 10:23:00,77.4,71.1,30.06,SSW,193,7.0,14.0,81,0.00,,---,0.11,VWS V14.00,2013-05-22 14:23:00,
2013-05-22 10:28:00,77.8,71.5,30.06,SSE,147,9.0,10.0,81,0.00,,---,0.11,VWS V14.00,2013-05-22 14:28:00,
2013-05-22 10:33:00,77.9,70.9,30.07,SSE,156,8.0,15.0,79,0.00,,---,0.11,VWS V14.00,2013-05-22 14:33:00,
2013-05-22 10:38:00,78.2,71.2,30.07,SE,142,12.0,16.0,79,0.00,,---,0.11,VWS V14.00,2013-05-22 14:38:00,
2013-05-22 10:43:00,78.0,70.6,30.07,SSE,150,11.0,16.0,78,0.00,,---,0.11,VWS V14.00,2013-05-22 14:43:00,
2013-05-22 10:48:00,77.9,70.5,30.07,South,172,10.0,17.0,78,0.00,,---,0.11,VWS V14.00,2013-05-22 14:48:00,
2013-05-22 10:53:00,77.9,70.9,30.07,South,183,11.0,17.0,79,0.00,,---,0.11,VWS V14.00,2013-05-22 14:53:00,
2013-05-22 10:58:00,77.9,70.5,30.06,SSE,148,8.0,14.0,78,0.00,,---,0.11,VWS V14.00,2013-05-22 14:58:00,
2013-05-22 11:03:00,77.9,70.5,30.06,SSE,152,9.0,15.0,78,0.00,,---,0.11,VWS V14.00,2013-05-22 15:03:00,
2013-05-22 11:08:00,78.0,70.2,30.06,South,176,10.0,15.0,77,0.00,,---,0.11,VWS V14.00,2013-05-22 15:08:00,
2013-05-22 11:13:00,77.9,70.9,30.06,South,176,8.0,15.0,79,0.00,,---,0.11,VWS V14.00,2013-05-22 15:13:00,
2013-05-22 11:18:00,78.3,71.3,30.06,South,186,13.0,15.0,79,0.00,,---,0.11,VWS V14.00,2013-05-22 15:18:00,
2013-05-22 11:23:00,78.6,70.0,30.06,South,187,11.0,19.0,75,0.00,,---,0.11,VWS V14.00,2013-05-22 15:23:00,
2013-05-22 11:28:00,78.7,70.9,30.06,SSW,202,10.0,12.0,77,0.00,,---,0.11,VWS V14.00,2013-05-22 15:28:00,
2013-05-22 11:33:00,78.8,70.6,30.06,SSW,193,12.0,15.0,76,0.00,,---,0.11,VWS V14.00,2013-05-22 15:33:00,
2013-05-22 11:38:00,78.8,70.6,30.06,SSE,164,15.0,16.0,76,0.00,,---,0.11,VWS V14.00,2013-05-22 15:38:00,
2013-05-22 11:43:00,78.7,70.9,30.06,South,172,7.0,18.0,77,0.00,,---,0.11,VWS V14.00,2013-05-22 15:43:00,
2013-05-22 11:48:00,78.7,70.1,30.06,South,180,9.0,18.0,75,0.00,,---,0.11,VWS V14.00,2013-05-22 15:48:00,
2013-05-22 11:53:00,78.5,70.3,30.06,South,183,14.0,18.0,76,0.00,,---,0.11,VWS V14.00,2013-05-22 15:53:00,
2013-05-22 11:58:00,78.3,69.7,30.06,SSE,168,16.0,16.0,75,0.00,,---,0.11,VWS V14.00,2013-05-22 15:58:00,
2013-05-22 12:03:00,78.4,70.2,30.06,South,177,13.0,18.0,76,0.00,,---,0.11,VWS V14.00,2013-05-22 16:03:00,
2013-05-22 12:08:00,78.3,69.7,30.06,SSW,206,14.0,21.0,75,0.00,,---,0.11,VWS V14.00,2013-05-22 16:08:00,
2013-05-22 12:13:00,78.4,70.2,30.06,SSE,164,16.0,21.0,76,0.00,,---,0.11,VWS V14.00,2013-05-22 16:13:00,
2013-05-22 12:18:00,78.2,69.2,30.06,SSE,149,15.0,21.0,74,0.00,,---,0.11,VWS V14.00,2013-05-22 16:18:00,
2013-05-22 12:23:00,78.4,70.2,30.05,SE,145,15.0,21.0,76,0.00,,---,0.11,VWS V14.00,2013-05-22 16:23:00,
2013-05-22 12:28:00,78.8,71.0,30.05,SSE,164,7.0,15.0,77,0.00,,---,0.11,VWS V14.00,2013-05-22 16:28:00,
2013-05-22 12:33:00,79.3,70.3,30.05,SSW,197,14.0,17.0,74,0.00,,---,0.11,VWS V14.00,2013-05-22 16:33:00,
2013-05-22 12:38:00,79.7,70.3,30.05,South,178,10.0,19.0,73,0.00,,---,0.11,VWS V14.00,2013-05-22 16:38:00,
2013-05-22 12:43:00,79.4,69.2,30.06,SSW,195,14.0,19.0,71,0.00,,---,0.11,VWS V14.00,2013-05-22 16:43:00,
2013-05-22 12:48:00,79.9,71.3,30.05,SSW,202,14.0,19.0,75,0.00,,---,0.11,VWS V14.00,2013-05-22 16:48:00,
2013-05-22 12:53:00,79.6,69.8,30.05,South,183,11.0,19.0,72,0.00,,---,0.11,VWS V14.00,2013-05-22 16:53:00,
2013-05-22 12:58:00,79.4,70.0,30.05,South,182,12.0,15.0,73,0.00,,---,0.11,VWS V14.00,2013-05-22 16:58:00,
2013-05-22 13:03:00,79.6,70.6,30.05,SSW,193,8.0,17.0,74,0.00,,---,0.11,VWS V14.00,2013-05-22 17:03:00,
2013-05-22 13:08:00,80.3,70.5,30.05,SE,139,12.0,17.0,72,0.00,,---,0.11,VWS V14.00,2013-05-22 17:08:00,
2013-05-22 13:13:00,79.1,70.5,30.05,SSE,167,12.0,18.0,75,0.00,,---,0.11,VWS V14.00,2013-05-22 17:13:00,
2013-05-22 13:18:00,79.0,70.4,30.04,South,173,15.0,20.0,75,0.00,,---,0.11,VWS V14.00,2013-05-22 17:18:00,
2013-05-22 13:23:00,79.1,70.9,30.04,SSE,164,8.0,20.0,76,0.00,,---,0.11,VWS V14.00,2013-05-22 17:23:00,
2013-05-22 13:28:00,79.5,70.9,30.04,SSE,152,14.0,18.0,75,0.00,,---,0.11,VWS V14.00,2013-05-22 17:28:00,
2013-05-22 13:33:00,79.1,70.9,30.04,SE,143,18.0,20.0,76,0.00,,---,0.11,VWS V14.00,2013-05-22 17:33:00,
2013-05-22 13:38:00,78.7,70.5,30.04,South,180,15.0,20.0,76,0.00,,---,0.11,VWS V14.00,2013-05-22 17:38:00,
2013-05-22 13:43:00,78.6,70.0,30.04,SSW,193,17.0,24.0,75,0.00,,---,0.11,VWS V14.00,2013-05-22 17:43:00,
2013-05-22 13:48:00,78.9,70.3,30.04,South,191,15.0,25.0,75,0.00,,---,0.11,VWS V14.00,2013-05-22 17:48:00,
2013-05-22 13:53:00,79.3,70.3,30.04,South,190,16.0,25.0,74,0.00,,---,0.11,VWS V14.00,2013-05-22 17:53:00,
2013-05-22 13:58:00,79.0,70.0,30.04,South,179,19.0,22.0,74,0.00,,---,0.11,VWS V14.00,2013-05-22 17:58:00,
2013-05-22 14:03:00,78.7,69.3,30.03,South,172,15.0,22.0,73,0.00,,---,0.11,VWS V14.00,2013-05-22 18:03:00,
2013-05-22 14:08:00,78.9,70.7,30.03,SSE,164,14.0,22.0,76,0.00,,---,0.11,VWS V14.00,2013-05-22 18:08:00,
2013-05-22 14:13:00,79.1,70.5,30.03,South,172,12.0,22.0,75,0.00,,---,0.11,VWS V14.00,2013-05-22 18:13:00,
2013-05-22 14:18:00,78.9,70.3,30.03,South,174,14.0,22.0,75,0.00,,---,0.11,VWS V14.00,2013-05-22 18:18:00,
2013-05-22 14:23:00,78.5,71.1,30.03,South,180,12.0,24.0,78,0.00,,---,0.11,VWS V14.00,2013-05-22 18:23:00,
2013-05-22 14:28:00,78.6,71.2,30.03,SSE,163,12.0,15.0,78,0.00,,---,0.11,VWS V14.00,2013-05-22 18:28:00,
2013-05-22 14:33:00,79.6,71.4,30.03,South,179,15.0,18.0,76,0.00,,---,0.11,VWS V14.00,2013-05-22 18:33:00,
2013-05-22 14:38:00,79.9,70.9,30.03,SSW,200,16.0,19.0,74,0.00,,---,0.11,VWS V14.00,2013-05-22 18:38:00,
2013-05-22 14:43:00,79.4,70.8,30.03,South,175,12.0,22.0,75,0.00,,---,0.11,VWS V14.00,2013-05-22 18:43:00,
2013-05-22 14:48:00,79.6,70.2,30.02,South,172,16.0,22.0,73,0.00,,---,0.11,VWS V14.00,2013-05-22 18:48:00,
2013-05-22 14:53:00,79.5,70.9,30.03,South,189,17.0,22.0,75,0.00,,---,0.11,VWS V14.00,2013-05-22 18:53:00,
2013-05-22 14:58:00,79.6,70.6,30.02,SSW,210,14.0,18.0,74,0.00,,---,0.11,VWS V14.00,2013-05-22 18:58:00,
2013-05-22 15:03:00,79.7,70.3,30.02,SSE,148,16.0,22.0,73,0.00,,---,0.11,VWS V14.00,2013-05-22 19:03:00,
2013-05-22 15:08:00,79.6,71.0,30.02,South,172,14.0,22.0,75,0.00,,---,0.11,VWS V14.00,2013-05-22 19:08:00,
2013-05-22 15:13:00,79.9,70.9,30.02,SE,146,11.0,22.0,74,0.00,,---,0.11,VWS V14.00,2013-05-22 19:13:00,
2013-05-22 15:18:00,79.4,70.0,30.02,SSE,155,15.0,25.0,73,0.00,,---,0.11,VWS V14.00,2013-05-22 19:18:00,
2013-05-22 15:24:00,79.0,70.4,30.02,South,172,15.0,25.0,75,0.00,,---,0.11,VWS V14.00,2013-05-22 19:24:00,
2013-05-22 15:29:00,79.0,70.4,30.02,South,177,11.0,22.0,75,0.00,,---,0.11,VWS V14.00,2013-05-22 19:29:00,
2013-05-22 15:34:00,79.2,70.6,30.02,SSW,198,13.0,22.0,75,0.00,,---,0.11,VWS V14.00,2013-05-22 19:34:00,
2013-05-22 15:39:00,78.9,70.3,30.02,South,173,14.0,23.0,75,0.00,,---,0.11,VWS V14.00,2013-05-22 19:39:00,
2013-05-22 15:44:00,78.9,70.7,30.02,South,185,11.0,23.0,76,0.00,,---,0.11,VWS V14.00,2013-05-22 19:44:00,
2013-05-22 15:49:00,78.7,70.5,30.02,South,178,17.0,23.0,76,0.00,,---,0.11,VWS V14.00,2013-05-22 19:49:00,
2013-05-22 15:54:00,78.7,70.5,30.01,South,182,17.0,23.0,76,0.00,,---,0.11,VWS V14.00,2013-05-22 19:54:00,
2013-05-22 15:59:00,78.6,70.4,30.01,South,170,10.0,22.0,76,0.00,,---,0.11,VWS V14.00,2013-05-22 19:59:00,
2013-05-22 16:04:00,78.6,70.4,30.01,SSE,168,9.0,22.0,76,0.00,,---,0.11,VWS V14.00,2013-05-22 20:04:00,
2013-05-22 16:09:00,78.8,70.6,30.01,SSE,147,15.0,22.0,76,0.00,,---,0.11,VWS V14.00,2013-05-22 20:09:00,
2013-05-22 16:14:00,78.6,70.4,30.01,SSE,165,10.0,22.0,76,0.00,,---,0.11,VWS V14.00,2013-05-22 20:14:00,
2013-05-22 16:19:00,78.8,71.0,30.01,SSE,161,11.0,22.0,77,0.00,,---,0.11,VWS V14.00,2013-05-22 20:19:00,
2013-05-22 16:24:00,78.4,70.2,30.01,SSE,168,12.0,22.0,76,0.00,,---,0.11,VWS V14.00,2013-05-22 20:24:00,
2013-05-22 16:29:00,77.8,70.4,30.01,South,189,13.0,17.0,78,0.00,,---,0.11,VWS V14.00,2013-05-22 20:29:00,
2013-05-22 16:34:00,77.8,70.8,30.00,South,185,11.0,22.0,79,0.00,,---,0.11,VWS V14.00,2013-05-22 20:34:00,
2013-05-22 16:39:00,77.9,71.2,30.00,South,186,10.0,22.0,80,0.00,,---,0.11,VWS V14.00,2013-05-22 20:39:00,
2013-05-22 16:44:00,78.6,71.6,30.00,SW,216,18.0,22.0,79,0.00,,---,0.11,VWS V14.00,2013-05-22 20:44:00,
2013-05-22 16:49:00,78.4,71.0,30.00,SSW,195,15.0,22.0,78,0.00,,---,0.11,VWS V14.00,2013-05-22 20:49:00,
2013-05-22 16:54:00,77.6,70.6,30.00,SSE,162,16.0,22.0,79,0.00,,---,0.11,VWS V14.00,2013-05-22 20:54:00,
2013-05-22 16:59:00,78.0,71.3,30.00,SSE,149,10.0,16.0,80,0.00,,---,0.11,VWS V14.00,2013-05-22 20:59:00,
2013-05-22 17:04:00,77.9,70.5,30.00,South,172,11.0,17.0,78,0.00,,---,0.11,VWS V14.00,2013-05-22 21:04:00,
2013-05-22 17:09:00,77.6,70.6,30.00,South,169,7.0,19.0,79,0.00,,---,0.11,VWS V14.00,2013-05-22 21:09:00,
2013-05-22 17:14:00,77.8,70.8,30.00,SE,141,13.0,19.0,79,0.00,,---,0.11,VWS V14.00,2013-05-22 21:14:00,
2013-05-22 17:19:00,77.6,70.6,30.00,South,187,8.0,19.0,79,0.00,,---,0.11,VWS V14.00,2013-05-22 21:19:00,
2013-05-22 17:24:00,77.4,70.0,30.00,South,180,16.0,20.0,78,0.00,,---,0.11,VWS V14.00,2013-05-22 21:24:00,
2013-05-22 17:29:00,77.7,70.3,29.99,South,183,14.0,14.0,78,0.00,,---,0.11,VWS V14.00,2013-05-22 21:29:00,
2013-05-22 17:34:00,77.3,69.5,29.99,South,185,21.0,24.0,77,0.00,,---,0.11,VWS V14.00,2013-05-22 21:34:00,
2013-05-22 17:39:00,76.6,69.2,30.00,SSE,161,12.0,24.0,78,0.00,,---,0.11,VWS V14.00,2013-05-22 21:39:00,
2013-05-22 17:44:00,76.4,69.4,30.00,SSE,150,10.0,24.0,79,0.00,,---,0.11,VWS V14.00,2013-05-22 21:44:00,
2013-05-22 17:49:00,76.5,69.5,30.00,SSE,158,6.0,24.0,79,0.00,,---,0.11,VWS V14.00,2013-05-22 21:49:00,
2013-05-22 17:54:00,76.6,69.6,29.99,South,186,15.0,24.0,79,0.00,,---,0.11,VWS V14.00,2013-05-22 21:54:00,
2013-05-22 17:59:00,76.5,69.9,29.99,South,170,10.0,16.0,80,0.00,,---,0.11,VWS V14.00,2013-05-22 21:59:00,
2013-05-22 18:04:00,76.7,70.1,29.99,SSE,163,11.0,18.0,80,0.00,,---,0.11,VWS V14.00,2013-05-22 22:04:00,
2013-05-22 18:09:00,76.7,70.1,29.99,South,170,7.0,18.0,80,0.00,,---,0.11,VWS V14.00,2013-05-22 22:09:00,
2013-05-22 18:14:00,76.8,69.8,29.99,SSE,154,10.0,18.0,79,0.00,,---,0.11,VWS V14.00,2013-05-22 22:14:00,
2013-05-22 18:19:00,76.6,69.6,29.99,South,181,14.0,18.0,79,0.00,,---,0.11,VWS V14.00,2013-05-22 22:19:00,
2013-05-22 18:24:00,76.3,69.3,29.99,SSW,195,15.0,18.0,79,0.00,,---,0.11,VWS V14.00,2013-05-22 22:24:00,
2013-05-22 18:29:00,75.8,68.8,29.98,SSW,208,13.0,22.0,79,0.00,,---,0.11,VWS V14.00,2013-05-22 22:29:00,
2013-05-22 18:34:00,75.7,69.1,29.98,SSE,168,13.0,22.0,80,0.00,,---,0.11,VWS V14.00,2013-05-22 22:34:00,
2013-05-22 18:39:00,75.7,68.7,29.98,South,172,9.0,22.0,79,0.00,,---,0.11,VWS V14.00,2013-05-22 22:39:00,
2013-05-22 18:44:00,75.7,69.5,29.98,SSE,166,7.0,22.0,81,0.00,,---,0.11,VWS V14.00,2013-05-22 22:44:00,
2013-05-22 18:49:00,75.5,68.9,29.98,South,189,10.0,22.0,80,0.00,,---,0.11,VWS V14.00,2013-05-22 22:49:00,
2013-05-22 18:54:00,75.5,69.3,29.98,South,183,8.0,22.0,81,0.00,,---,0.11,VWS V14.00,2013-05-22 22:54:00,
2013-05-22 18:59:00,75.2,69.0,29.99,SSE,165,12.0,14.0,81,0.00,,---,0.11,VWS V14.00,2013-05-22 22:59:00,
2013-05-22 19:04:00,74.9,69.0,29.99,South,173,6.0,17.0,82,0.00,,---,0.11,VWS V14.00,2013-05-22 23:04:00,
2013-05-22 19:09:00,74.8,69.3,29.99,South,184,10.0,17.0,83,0.00,,---,0.11,VWS V14.00,2013-05-22 23:09:00,
2013-05-22 19:14:00,74.6,69.4,29.98,South,176,7.0,17.0,84,0.00,,---,0.11,VWS V14.00,2013-05-22 23:14:00,
2013-05-22 19:19:00,74.3,69.2,29.98,South,190,13.0,17.0,84,0.00,,---,0.11,VWS V14.00,2013-05-22 23:19:00,
2013-05-22 19:24:00,74.0,69.2,29.98,South,185,7.0,17.0,85,0.00,,---,0.11,VWS V14.00,2013-05-22 23:24:00,
2013-05-22 19:29:00,73.9,69.1,29.98,South,174,6.0,10.0,85,0.00,,---,0.11,VWS V14.00,2013-05-22 23:29:00,
2013-05-22 19:34:00,73.8,69.3,29.98,SSE,164,9.0,13.0,86,0.00,,---,0.11,VWS V14.00,2013-05-22 23:34:00,
2013-05-22 19:39:00,73.6,69.2,29.98,SSE,153,8.0,17.0,86,0.00,,---,0.11,VWS V14.00,2013-05-22 23:39:00,
2013-05-22 19:44:00,73.4,69.3,29.98,SSE,148,9.0,17.0,87,0.00,,---,0.11,VWS V14.00,2013-05-22 23:44:00,
2013-05-22 19:49:00,73.1,69.3,29.98,SSE,168,7.0,17.0,88,0.00,,---,0.11,VWS V14.00,2013-05-22 23:49:00,
2013-05-22 19:54:00,73.0,69.2,29.98,SSE,151,6.0,17.0,88,0.00,,---,0.11,VWS V14.00,2013-05-22 23:54:00,
2013-05-22 19:59:00,72.8,69.4,29.98,SSE,157,7.0,10.0,89,0.00,,---,0.11,VWS V14.00,2013-05-22 23:59:00,
2013-05-22 20:04:00,72.6,69.5,29.99,SSE,164,9.0,12.0,90,0.00,,---,0.11,VWS V14.00,2013-05-23 00:04:00,
2013-05-22 20:09:00,72.5,69.4,29.99,SSE,150,10.0,12.0,90,0.00,,---,0.11,VWS V14.00,2013-05-23 00:09:00,
2013-05-22 20:14:00,72.5,69.4,29.99,SSE,153,6.0,12.0,90,0.00,,---,0.11,VWS V14.00,2013-05-23 00:14:00,
2013-05-22 20:19:00,72.4,69.3,29.99,SSE,166,6.0,12.0,90,0.00,,---,0.11,VWS V14.00,2013-05-23 00:19:00,
2013-05-22 20:24:00,72.3,69.5,29.99,SSE,162,5.0,12.0,91,0.00,,---,0.11,VWS V14.00,2013-05-23 00:24:00,
2013-05-22 20:29:00,72.2,69.4,29.99,SSE,151,8.0,9.0,91,0.00,,---,0.11,VWS V14.00,2013-05-23 00:29:00,
2013-05-22 20:34:00,72.2,69.4,29.99,SE,143,6.0,9.0,91,0.00,,---,0.11,VWS V14.00,2013-05-23 00:34:00,
2013-05-22 20:39:00,72.2,69.4,29.99,SE,135,6.0,9.0,91,0.00,,---,0.11,VWS V14.00,2013-05-23 00:39:00,
2013-05-22 20:44:00,72.1,69.3,29.99,SSE,155,8.0,10.0,91,0.00,,---,0.11,VWS V14.00,2013-05-23 00:44:00,
2013-05-22 20:49:00,72.1,69.3,29.99,SSE,160,5.0,10.0,91,0.00,,---,0.11,VWS V14.00,2013-05-23 00:49:00,
2013-05-22 20:54:00,72.0,69.6,29.99,SSE,166,7.0,10.0,92,0.00,,---,0.11,VWS V14.00,2013-05-23 00:54:00,
2013-05-22 20:59:00,72.0,69.6,29.99,South,175,8.0,8.0,92,0.00,,---,0.11,VWS V14.00,2013-05-23 00:59:00,
2013-05-22 21:04:00,72.0,69.6,29.99,SSE,164,5.0,8.0,92,0.00,,---,0.11,VWS V14.00,2013-05-23 01:04:00,
2013-05-22 21:09:00,71.9,69.4,30.00,South,181,5.0,8.0,92,0.00,,---,0.11,VWS V14.00,2013-05-23 01:09:00,
2013-05-22 21:14:00,71.9,69.4,30.00,SSE,150,5.0,9.0,92,0.00,,---,0.11,VWS V14.00,2013-05-23 01:14:00,
2013-05-22 21:19:00,71.9,69.4,30.00,SSE,158,5.0,9.0,92,0.00,,---,0.11,VWS V14.00,2013-05-23 01:19:00,
2013-05-22 21:24:00,71.9,69.4,30.00,South,172,4.0,9.0,92,0.00,,---,0.11,VWS V14.00,2013-05-23 01:24:00,
2013-05-22 21:29:00,71.8,69.3,30.01,South,175,3.0,7.0,92,0.00,,---,0.11,VWS V14.00,2013-05-23 01:29:00,
2013-05-22 21:34:00,71.7,69.3,30.01,South,188,6.0,8.0,92,0.00,,---,0.11,VWS V14.00,2013-05-23 01:34:00,
2013-05-22 21:39:00,71.7,69.6,30.01,South,177,4.0,8.0,93,0.00,,---,0.11,VWS V14.00,2013-05-23 01:39:00,
2013-05-22 21:44:00,71.7,69.6,30.01,South,184,5.0,8.0,93,0.00,,---,0.11,VWS V14.00,2013-05-23 01:44:00,
2013-05-22 21:49:00,71.6,69.5,30.01,South,179,7.0,9.0,93,0.00,,---,0.11,VWS V14.00,2013-05-23 01:49:00,
2013-05-22 21:54:00,71.6,69.5,30.01,SSE,161,5.0,9.0,93,0.00,,---,0.11,VWS V14.00,2013-05-23 01:54:00,
2013-05-22 21:59:00,71.6,69.5,30.01,South,188,5.0,7.0,93,0.00,,---,0.11,VWS V14.00,2013-05-23 01:59:00,
2013-05-22 22:04:00,71.7,69.6,30.01,SSE,154,5.0,9.0,93,0.00,,---,0.11,VWS V14.00,2013-05-23 02:04:00,
2013-05-22 22:09:00,71.7,69.6,30.01,SSE,158,5.0,9.0,93,0.00,,---,0.11,VWS V14.00,2013-05-23 02:09:00,
2013-05-22 22:14:00,71.8,69.7,30.01,SSE,162,5.0,9.0,93,0.00,,---,0.11,VWS V14.00,2013-05-23 02:14:00,
2013-05-22 22:19:00,71.9,69.8,30.01,South,170,6.0,9.0,93,0.00,,---,0.11,VWS V14.00,2013-05-23 02:19:00,
2013-05-22 22:24:00,71.9,69.8,30.01,SSE,159,5.0,9.0,93,0.00,,---,0.11,VWS V14.00,2013-05-23 02:24:00,
2013-05-22 22:29:00,71.9,69.8,30.01,SSW,193,6.0,8.0,93,0.00,,---,0.11,VWS V14.00,2013-05-23 02:29:00,
2013-05-22 22:34:00,71.9,69.8,30.01,South,176,5.0,8.0,93,0.00,,---,0.11,VWS V14.00,2013-05-23 02:34:00,
2013-05-22 22:39:00,71.9,69.8,30.01,SSE,164,7.0,9.0,93,0.00,,---,0.11,VWS V14.00,2013-05-23 02:39:00,
2013-05-22 22:44:00,71.9,69.8,30.01,South,185,5.0,9.0,93,0.00,,---,0.11,VWS V14.00,2013-05-23 02:44:00,
2013-05-22 22:49:00,71.9,69.8,30.01,SSE,158,6.0,9.0,93,0.00,,---,0.11,VWS V14.00,2013-05-23 02:49:00,
2013-05-22 22:54:00,72.0,69.9,30.01,South,170,4.0,9.0,93,0.00,,---,0.11,VWS V14.00,2013-05-23 02:54:00,
2013-05-22 22:59:00,72.1,70.0,30.01,SSE,168,7.0,10.0,93,0.00,,---,0.11,VWS V14.00,2013-05-23 02:59:00,
2013-05-22 23:04:00,72.2,70.1,30.01,South,175,6.0,10.0,93,0.00,,---,0.11,VWS V14.00,2013-05-23 03:04:00,
2013-05-22 23:09:00,72.2,69.8,30.01,South,190,7.0,10.0,92,0.00,,---,0.11,VWS V14.00,2013-05-23 03:09:00,
2013-05-22 23:14:00,72.2,69.8,30.01,South,172,4.0,10.0,92,0.00,,---,0.11,VWS V14.00,2013-05-23 03:14:00,
2013-05-22 23:19:00,72.1,69.7,30.00,South,169,5.0,10.0,92,0.00,,---,0.11,VWS V14.00,2013-05-23 03:19:00,
2013-05-22 23:24:00,72.1,69.7,30.00,SSE,165,4.0,10.0,92,0.00,,---,0.11,VWS V14.00,2013-05-23 03:24:00,
2013-05-22 23:29:00,72.1,69.7,30.00,South,173,7.0,7.0,92,0.00,,---,0.11,VWS V14.00,2013-05-23 03:29:00,
2013-05-22 23:34:00,72.1,69.7,30.00,SSE,160,4.0,7.0,92,0.00,,---,0.11,VWS V14.00,2013-05-23 03:34:00,
2013-05-22 23:39:00,72.1,69.7,30.00,South,177,7.0,8.0,92,0.00,,---,0.11,VWS V14.00,2013-05-23 03:39:00,
2013-05-22 23:44:00,72.1,70.0,30.00,South,181,4.0,8.0,93,0.00,,---,0.11,VWS V14.00,2013-05-23 03:44:00,
2013-05-22 23:49:00,72.1,70.0,30.00,SSE,160,4.0,8.0,93,0.00,,---,0.11,VWS V14.00,2013-05-23 03:49:00,
2013-05-22 23:54:00,72.1,70.0,30.00,SSE,154,5.0,8.0,93,0.00,,---,0.11,VWS V14.00,2013-05-23 03:54:00,
2013-05-22 23:59:00,72.2,70.1,30.00,SSE,154,5.0,7.0,93,0.00,,---,0.00,VWS V14.00,2013-05-23 03:59:00,